TimeADT,TemperatureF,Dew PointF,Humidity,Sea Level PressureIn,VisibilityMPH,Wind Direction,Wind SpeedMPH,Gust SpeedMPH,PrecipitationIn,Events,Conditions,WindDirDegrees,DateUTC
12:00 AM,50.0,46.4,87,30.09,15.0,Calm,Calm,-,N/A,,Mostly Cloudy,0,2012-10-08 03:00:00
1:00 AM,51.8,48.2,88,30.08,15.0,ESE,3.5,-,N/A,,Mostly Cloudy,110,2012-10-08 04:00:00
2:00 AM,53.6,48.2,82,30.08,15.0,Calm,Calm,-,N/A,,Overcast,0,2012-10-08 05:00:00
3:00 AM,52,48,81,30.06,15,East,2.3,,,,Mostly Cloudy,100,2012-10-08 06:00:00
3:00 AM,51.8,48.2,88,30.06,15.0,Calm,Calm,-,N/A,,Mostly Cloudy,0,2012-10-08 06:00:00
4:00 AM,51.8,48.2,88,30.06,15.0,SE,4.6,-,N/A,,Mostly Cloudy,130,2012-10-08 07:00:00
5:00 AM,53.6,50.0,88,30.04,15.0,SE,6.9,-,N/A,,Overcast,140,2012-10-08 08:00:00
6:00 AM,53.6,50.0,88,30.01,15.0,SE,5.8,-,N/A,Rain,Light Rain,140,2012-10-08 09:00:00
6:50 AM,-9999,-9999,N/A,-9999,15.0,ESE,8.1,-,N/A,,Overcast,110,2012-10-08 09:50:00
7:00 AM,55.4,50.0,82,29.96,15.0,ESE,8.1,-,N/A,,Overcast,120,2012-10-08 10:00:00
7:32 AM,-9999,-9999,N/A,-9999,15.0,SE,11.5,-,N/A,Rain,Light Rain Showers,130,2012-10-08 10:32:00
8:00 AM,57.2,51.8,82,29.95,5.0,ESE,8.1,-,N/A,Rain,Light Rain Showers,120,2012-10-08 11:00:00
8:35 AM,-9999,-9999,N/A,-9999,1.5,Calm,Calm,-,N/A,Rain,Light Rain Showers,0,2012-10-08 11:35:00
9:00 AM,56,53,86,29.93,1,NNW,6.9,,,Rain,Rain,330,2012-10-08 12:00:00
9:00 AM,55.4,53.6,94,29.93,1.5,NW,11.5,-,N/A,Rain,Rain,320,2012-10-08 12:00:00
9:24 AM,-9999,-9999,N/A,-9999,3.0,NNW,15.0,-,N/A,Rain,Light Rain,330,2012-10-08 12:24:00
10:00 AM,53.6,51.8,94,29.93,3.0,NNW,9.2,-,N/A,Rain,Light Rain,330,2012-10-08 13:00:00
10:53 AM,-9999,-9999,N/A,-9999,1.5,NW,9.2,-,N/A,Rain,Light Rain,320,2012-10-08 13:53:00
11:00 AM,55.4,51.8,88,29.91,1.5,NNW,9.2,-,N/A,Rain,Light Rain,330,2012-10-08 14:00:00
11:16 AM,-9999,-9999,N/A,-9999,3.0,NW,10.4,-,N/A,,Overcast,320,2012-10-08 14:16:00
11:27 AM,-9999,-9999,N/A,-9999,7.0,NW,10.4,-,N/A,Rain,Light Rain Showers,320,2012-10-08 14:27:00
11:40 AM,-9999,-9999,N/A,-9999,3.0,NW,10.4,-,N/A,Rain,Light Rain Showers,310,2012-10-08 14:40:00
12:00 PM,55.4,51.8,88,29.93,8.0,WNW,10.4,-,N/A,Rain,Light Rain Showers,300,2012-10-08 15:00:00
12:23 PM,-9999,-9999,N/A,-9999,15.0,WNW,8.1,-,N/A,,Mostly Cloudy,300,2012-10-08 15:23:00
1:00 PM,55.4,51.8,88,29.93,15.0,WNW,12.7,-,N/A,,Mostly Cloudy,290,2012-10-08 16:00:00
2:00 PM,57.2,50.0,77,29.95,15.0,WNW,11.5,-,N/A,,Mostly Cloudy,290,2012-10-08 17:00:00
3:00 PM,58,49,64,29.98,15,WNW,12.7,,,,Partly Cloudy,290,2012-10-08 18:00:00
3:00 PM,57.2,50.0,77,29.98,15.0,West,11.5,-,N/A,,Mostly Cloudy,280,2012-10-08 18:00:00
4:00 PM,55.4,44.6,67,30.02,15.0,West,19.6,25.3,N/A,,Mostly Cloudy,280,2012-10-08 19:00:00
5:00 PM,53.6,44.6,72,30.06,15.0,WNW,12.7,18.4,N/A,,Mostly Cloudy,300,2012-10-08 20:00:00
6:00 PM,53.6,42.8,67,30.09,15.0,WNW,11.5,-,N/A,,Mostly Cloudy,300,2012-10-08 21:00:00
7:00 PM,51.8,42.8,71,30.12,15.0,West,5.8,-,N/A,,Mostly Cloudy,280,2012-10-08 22:00:00
8:00 PM,48.2,41.0,76,30.18,15.0,WSW,6.9,-,N/A,,Scattered Clouds,240,2012-10-08 23:00:00
9:00 PM,46,42,80,30.21,15,SW,4.6,,,,Mostly Cloudy,230,2012-10-09 00:00:00
9:00 PM,46.4,41.0,81,30.21,15.0,SW,4.6,-,N/A,,Mostly Cloudy,230,2012-10-09 00:00:00
10:00 PM,48.2,42.8,82,30.22,15.0,WSW,6.9,-,N/A,,Mostly Cloudy,240,2012-10-09 01:00:00
11:00 PM,46.4,42.8,87,30.25,15.0,WSW,6.9,-,N/A,,Mostly Cloudy,240,2012-10-09 02:00:00